Location: Gleizolles
(44.4833°N, 6.7667°E)
Time: 01:02:42
(UTC+00:00)

S-56A Canister/Altair - Pass Details

Date: 03 July 2024
Orbit: 638 x 2488 km, 38.9° (Epoch: 24 July)

Event Time Altitude Azimuth Distance (km) Brightness Sun altitude
Rises 23:59:07 0° 276° (W) 4,682 11.6 -22.4°
Reaches altitude 10° 00:02:48 10° 262° (W) 3,989 11.0 -22.3°
Enters shadow 00:09:43 22° 222° (SW) 3,545 10.4 -22.2°
Maximum altitude 00:10:33 23° 216° (SW) 3,581 - -22.2°
Drops below altitude 10° 00:20:01 10° 173° (S) 4,948 - -21.9°
Sets 00:25:24 0° 160° (SSE) 6,096 - -21.7°
